TimeCDT,TemperatureF,Dew PointF,Humidity,Sea Level PressureIn,VisibilityMPH,Wind Direction,Wind SpeedMPH,Gust SpeedMPH,PrecipitationIn,Events,Conditions,WindDirDegrees,DateUTC
12:53 AM,64.9,60.1,84,30.01,10.0,Calm,Calm,-,N/A,,Clear,0,2013-06-14 05:53:00
1:53 AM,64.9,59.0,81,30.00,10.0,Calm,Calm,-,N/A,,Clear,0,2013-06-14 06:53:00
2:53 AM,63.0,59.0,87,30.01,10.0,North,4.6,-,N/A,,Clear,10,2013-06-14 07:53:00
3:53 AM,64.0,59.0,84,29.98,10.0,SE,3.5,-,N/A,,Clear,140,2013-06-14 08:53:00
4:53 AM,66.9,57.9,73,29.98,10.0,ESE,4.6,-,N/A,,Partly Cloudy,110,2013-06-14 09:53:00
5:53 AM,66.9,59.0,76,30.00,10.0,Calm,Calm,-,N/A,,Overcast,0,2013-06-14 10:53:00
6:53 AM,66.9,60.1,79,30.01,10.0,SE,5.8,-,N/A,,Clear,140,2013-06-14 11:53:00
7:53 AM,69.1,61.0,75,30.00,10.0,ESE,8.1,-,N/A,,Mostly Cloudy,120,2013-06-14 12:53:00
8:53 AM,72.0,63.0,73,29.99,10.0,South,8.1,-,N/A,,Mostly Cloudy,170,2013-06-14 13:53:00
9:53 AM,77.0,64.9,66,29.97,10.0,SSE,11.5,-,N/A,,Partly Cloudy,160,2013-06-14 14:53:00
10:53 AM,80.1,62.1,54,29.98,10.0,South,15.0,21.9,N/A,,Overcast,170,2013-06-14 15:53:00
11:53 AM,84.9,63.0,48,29.95,10.0,South,13.8,20.7,N/A,,Clear,170,2013-06-14 16:53:00
12:53 PM,84.9,63.0,48,29.95,10.0,SSE,13.8,20.7,N/A,,Clear,150,2013-06-14 17:53:00
1:53 PM,84.0,68.0,58,29.93,10.0,ESE,17.3,25.3,N/A,,Clear,110,2013-06-14 18:53:00
2:53 PM,84.0,66.9,56,29.91,10.0,ESE,15.0,26.5,N/A,,Clear,120,2013-06-14 19:53:00
3:53 PM,86.0,66.9,53,29.89,10.0,SE,19.6,25.3,N/A,,Clear,140,2013-06-14 20:53:00
4:53 PM,86.0,66.0,51,29.87,10.0,SE,18.4,-,N/A,,Clear,140,2013-06-14 21:53:00
5:53 PM,86.0,66.9,53,29.85,10.0,SE,19.6,25.3,N/A,,Mostly Cloudy,130,2013-06-14 22:53:00
6:53 PM,84.0,66.9,56,29.86,10.0,SE,16.1,26.5,N/A,,Overcast,130,2013-06-14 23:53:00
7:53 PM,82.9,66.9,58,29.85,10.0,SE,16.1,24.2,N/A,,Clear,130,2013-06-15 00:53:00
8:53 PM,82.0,66.9,60,29.86,10.0,ESE,12.7,-,N/A,,Clear,120,2013-06-15 01:53:00
9:53 PM,80.1,66.9,64,29.89,10.0,SE,15.0,-,N/A,,Scattered Clouds,140,2013-06-15 02:53:00
10:53 PM,80.1,66.0,62,29.87,10.0,SSE,16.1,24.2,N/A,,Clear,160,2013-06-15 03:53:00
11:53 PM,77.0,66.9,71,29.88,10.0,SSE,9.2,-,N/A,,Clear,160,2013-06-15 04:53:00